Weather History for Sharm El Sheikh, Egypt

Change the Weather History Date:

Tuesday, August 13, 2013

  Actual Average Record
Temperature  
Mean Temperature 93 °F -  
Max Temperature 104 °F 98 °F - ()
Min Temperature 82 °F 81 °F - ()
Cooling Degree Days 28    
Growing Degree Days 43 (Base 50)    
Moisture  
Dew Point 53 °F    
Average Humidity 29    
Maximum Humidity 54    
Minimum Humidity 15    
Precipitation  
Precipitation 0.00 in 0.00 in - ()
Sea Level Pressure  
Sea Level Pressure 29.64 in    
Wind  
Wind Speed 10 mph ()    
Max Wind Speed 16 mph    
Max Gust Speed -    
T = Trace of Precipitation, MM = Missing Value Source: Averaged Metar Reports

Daily Weather History Graph

Daily Weather History Graph

Search for Another Location

Airport:

Trip Planner

Search our weather history database for the weather conditions in past years. The results will help you decide how hot, cold, wet, or windy it might be!

Date:

Astronomy

Aug. 13, 2013 Rise Set
Actual Time 5:11 AM EET 6:22 PM EET
Civil Twilight 4:46 AM EET 6:47 PM EET
Nautical Twilight 4:17 AM EET 7:16 PM EET
Astronomical Twilight 3:47 AM EET 7:46 PM EET
Moon 11:05 AM EET (8/13) 10:22 PM EET (8/13)
Length of Visible Light 14h 00m
Length of Day
13h 11m
Waxing Crescent, 39% of the Moon is Illuminated
Aug 13
Waxing Crescent
Aug 14
First Quarter
Aug 21
Full
Aug 28
Last Quarter
Sep 5
New

Hourly Weather History & Observations

Time (EET) Temp. Heat Index Dew Point Humidity Pressure Visibility Wind Dir Wind Speed Gust Speed Precip Events Conditions
12:00 AM 89.6 °F - 41.0 °F 18% 29.65 in - North 11.5 mph - N/A   Clear
1:00 AM 86.0 °F - 50.0 °F 29% 29.65 in - NNE 6.9 mph - N/A   Clear
2:00 AM 84.2 °F 85.0 °F 62.6 °F 48% 29.65 in - North 15.0 mph - N/A   Clear
3:00 AM 82.4 °F 83.9 °F 64.4 °F 54% 29.65 in - North 13.8 mph - N/A   Clear
4:00 AM 82.4 °F 83.4 °F 62.6 °F 51% 29.65 in - North 13.8 mph - N/A   Clear
5:00 AM 82.4 °F 83.4 °F 62.6 °F 51% 29.65 in - North 13.8 mph - N/A   Clear
6:00 AM 84.2 °F 85.0 °F 62.6 °F 48% 29.65 in - North 12.7 mph - N/A   Clear
7:00 AM 87.8 °F 88.5 °F 62.6 °F 43% 29.68 in - North 12.7 mph - N/A   Clear
8:00 AM 91.4 °F 89.9 °F 57.2 °F 31% 29.68 in - North 16.1 mph - N/A   Clear
9:00 AM 93.2 °F 91.9 °F 57.2 °F 30% 29.68 in - NNE 15.0 mph - N/A   Clear
10:00 AM 93.2 °F 93.3 °F 60.8 °F 34% 29.68 in - NNE 13.8 mph - N/A   Clear
11:00 AM 95.0 °F 93.0 °F 55.4 °F 26% 29.68 in - NNE 15.0 mph - N/A   Clear
12:00 PM 96.8 °F 94.4 °F 53.6 °F 23% 29.68 in - NNE 13.8 mph - N/A   Clear
1:00 PM 98.6 °F - 51.8 °F 21% 29.65 in - NNE 13.8 mph - N/A   Clear
2:00 PM 102.2 °F - 50.0 °F 17% 29.62 in - NE 8.1 mph - N/A   Clear
3:00 PM 104.0 °F - 48.2 °F 15% 29.62 in - NE 5.8 mph - N/A   Clear
4:00 PM 102.2 °F - 46.4 °F 15% 29.59 in - NE 5.8 mph - N/A   Clear
5:00 PM 100.4 °F - 46.4 °F 16% 29.59 in - NE 5.8 mph - N/A   Clear
6:00 PM 96.8 °F - 44.6 °F 17% 29.59 in - North 9.2 mph - N/A   Clear
7:00 PM 95.0 °F - 42.8 °F 16% 29.59 in - North 6.9 mph - N/A   Clear
8:00 PM 91.4 °F - 42.8 °F 18% 29.59 in - North 5.8 mph - N/A   Clear
9:00 PM 89.6 °F - 41.0 °F 18% 29.62 in - SW 3.5 mph - N/A   Clear
10:00 PM 87.8 °F - 44.6 °F 22% 29.62 in - Calm Calm - N/A   Clear
11:00 PM 86.0 °F 86.1 °F 60.8 °F 43% 29.62 in - WSW 3.5 mph - N/A   Clear